[[{"header":{"parameterUnit":"m.s-1","parameterCategory":1,"la1":30.2991,"la2":30.254,"lo1":-89.0895,"lo2":-89.0444,"dy":0.0017,"dx":0.0017,"nx":28,"ny":28,"refTime":"2026-02-12T03:00:00:Z","depth":0,"parameterNumber":2,"parameterNumberName":"U-component_of_WINDS"},"data":[0,0,0,0,0,0,0,0,0,0,0,0,0,0,0,0,0,0,0,0,0,0,0,0,0,0,0,0,0,0,0,0,0,0,0,0,0,0,0,0,0,0,0,0,0,0,0,0,0,0,0,0,0,0,0,0,0,0,1.4195,1.4196,0,1.4221,1.4221,1.4221,1.4156,1.4154,1.4152,1.415,1.4178,1.418,1.4183,0,0,0,0,0,0,0,0,0,0,0,0,0,1.4092,1.4094,1.4195,1.4196,1.4196,1.422,1.4221,1.4221,1.4157,1.4154,1.4152,1.4149,1.4177,1.418,1.4183,0,0,0,0,0,0,0,0,0,0,0,0,0,1.4129,1.4095,1.4195,1.4167,1.4164,1.422,1.4221,1.4221,1.4157,1.4154,1.4151,1.4148,1.4176,1.418,1.4184,1.4269,0,0,1.4196,1.4197,0,0,0,0,0,0,0,0,1.4127,1.4133,1.4171,1.4169,1.4166,1.4182,1.4194,1.4237,1.4158,1.416,1.415,1.4147,1.4182,1.4185,1.4197,1.427,1.4271,1.4196,1.4198,1.42,1.4201,0,0,0,0,0,0,0,1.4125,1.4132,1.4205,1.4171,1.4169,1.4153,1.4155,1.4202,1.4188,1.416,1.4155,1.4159,1.418,1.4193,1.4197,1.4272,1.4196,1.4199,1.4202,1.4203,1.4416,1.4419,0,0,0,0,0,0,1.4126,1.413,1.4204,1.4206,1.4139,1.4157,1.4159,1.418,1.4187,1.4185,1.4161,1.4156,1.4188,1.4192,1.4197,1.4297,1.42,1.4204,1.4206,1.4413,1.4416,1.442,0,0,0,0,0,0,1.4124,1.4133,1.4203,1.4167,1.4174,1.4162,1.4186,1.4182,1.4195,1.4188,1.4186,1.4177,1.4185,1.4192,1.4251,1.4297,1.4206,1.4209,1.4409,1.4414,1.4418,1.4498,0,0,0,0,0,0,1.4121,1.4133,1.4165,1.4168,1.4177,1.4257,1.4189,1.4185,1.4202,1.4195,1.4202,1.4201,1.4184,1.4246,1.4255,1.4301,1.4212,1.4404,1.4411,1.4417,1.4491,1.4505,1.4517,0,0,0,0,0,1.4118,1.4187,1.4167,1.4176,1.4217,1.426,1.4265,1.4243,1.4206,1.4238,1.4234,1.4201,1.4291,1.4252,1.4263,1.431,1.4402,1.4409,1.4416,1.4486,1.4503,1.4517,0,0,0,0,0,0,1.419,1.4187,1.4165,1.4237,1.4249,1.4249,1.4289,1.4262,1.4286,1.4278,1.425,1.4253,1.4317,1.432,1.4277,1.4393,1.434,1.4349,1.4389,1.4405,1.4418,1.4416,1.4215,0,0,0,0,0,1.4215,1.425,1.4245,1.4309,1.4316,1.4302,1.432,1.4302,1.4314,1.4319,1.4319,1.4332,1.4363,1.4384,1.4412,1.4491,1.4492,1.4529,1.4542,1.4552,1.4561,1.4603,1.4619,1.4444,1.4444,1.4444,0,0,1.4266,1.4268,1.4292,1.4324,1.4331,1.4368,1.4307,1.4349,1.4376,1.4325,1.4381,1.4381,1.4394,1.4464,1.4494,1.4468,1.4609,1.4562,1.457,1.4573,1.4612,1.4628,1.4643,1.4449,1.4448,1.4448,0,0,1.4377,1.4383,1.4437,1.4445,1.4456,1.4446,1.4459,1.4463,1.4461,1.4516,1.4479,1.4511,1.4565,1.4576,1.4588,1.4703,1.4673,1.4713,1.478,1.4821,1.4834,1.4846,1.4887,1.4902,1.4721,1.4722,1.4722,0,1.4439,1.4493,1.4468,1.4512,1.4527,1.4482,1.4536,1.4546,1.4567,1.4578,1.4548,1.4614,1.4619,1.469,1.4718,1.473,1.4744,1.4712,1.4834,1.4846,1.4857,1.4896,1.4911,1.4726,1.4726,1.4725,1.4725,0,1.4569,1.4607,1.4649,1.4669,1.4689,1.4738,1.472,1.4743,1.4723,1.4716,1.4773,1.4778,1.4806,1.4821,1.4803,1.489,1.4873,1.4839,1.4785,1.4879,1.4915,1.4929,1.4733,1.4731,1.473,1.4729,0,0,1.4728,1.4733,1.4749,1.4757,1.4766,1.4795,1.4842,1.4869,1.4889,1.4904,1.4943,1.499,1.4958,1.4972,1.4954,1.499,1.508,1.4951,1.4951,1.4975,1.5176,1.5201,1.5219,1.506,1.5063,1.5065,1.5174,0,1.4838,1.4919,1.4897,1.4977,1.5011,1.4968,1.5009,1.5019,1.5014,1.5042,1.5036,1.5069,1.5025,1.5033,1.5067,1.5062,1.512,1.5054,1.5096,1.5098,1.5094,1.5237,1.5265,1.5368,1.5188,1.5191,1.5192,0,1.4978,1.4998,1.5082,1.5084,1.5098,1.5135,1.5157,1.5185,1.5195,1.5189,1.5204,1.5179,1.5225,1.517,1.5233,1.5189,1.5204,1.5205,1.5208,1.5212,1.5151,1.5245,1.5401,1.5416,1.5214,1.5212,1.5211,0,1.5086,1.5134,1.519,1.5198,1.5202,1.5229,1.5233,1.524,1.5257,1.5277,1.5287,1.5313,1.5326,1.5346,1.5328,1.529,1.5394,1.5338,1.539,1.5391,1.5414,1.5413,1.5575,1.5424,1.5424,1.5424,1.5423,0,1.5211,1.5264,1.5238,1.5273,1.533,1.5304,1.5362,1.536,1.5367,1.54,1.5365,1.5397,1.5371,1.5401,1.5387,1.5441,1.5447,1.5443,1.5439,1.5447,1.5447,1.5457,1.545,1.5428,1.5427,1.5426,1.5425,0,1.5342,1.5326,1.5385,1.5383,1.5384,1.5427,1.5426,1.5458,1.5449,1.5492,1.5501,1.5487,1.552,1.5504,1.5539,1.5529,1.5599,1.5585,1.5596,1.5592,1.5645,1.564,1.5819,1.5841,1.5676,1.5678,1.5679,0,1.5423,1.5463,1.5465,1.5485,1.549,1.5523,1.554,1.5515,1.5535,1.5549,1.5579,1.5609,1.5632,1.5687,1.568,1.5706,1.5693,1.5753,1.5697,1.5703,1.5694,1.5692,1.5695,1.5765,1.5767,1.5769,1.577,0,1.5569,1.5559,1.5585,1.5609,1.563,1.5647,1.5661,1.568,1.5655,1.5679,1.5712,1.573,1.5764,1.5795,1.5817,1.582,1.5792,1.5788,1.5801,1.581,1.5814,1.5812,1.5627,1.5784,1.5783,1.5782,1.5781,1.578,1.5677,1.571,1.5717,1.5747,1.5755,1.5769,1.5799,1.5793,1.5821,1.5847,1.5831,1.587,1.5878,1.5905,1.5912,1.5942,1.5918,1.5937,1.5942,1.5948,1.5955,1.5809,1.5946,1.5945,1.5945,1.5945,1.5944,0,1.5821,1.5823,1.5851,1.5872,1.5896,1.5865,1.5879,1.5901,1.5936,1.5946,1.5968,1.6006,1.6035,1.603,1.6057,1.6082,1.6069,1.6089,1.6087,1.6089,1.5975,1.5961,1.6099,1.6099,1.6099,1.6099,1.6099,1.6099,1.5899,1.5953,1.5944,1.6001,1.6003,1.604,1.6051,1.6064,1.6071,1.6115,1.6139,1.6135,1.6139,1.6165,1.619,1.6188,1.6199,1.6225,1.6218,1.6112,1.6097,1.6082,1.6069,1.6227,1.6228,1.6329,1.633,1.6331]},{"header":{"parameterUnit":"m.s-1","parameterCategory":1,"la1":30.2991,"la2":30.254,"lo1":-89.0895,"lo2":-89.0444,"dy":0.0017,"dx":0.0017,"nx":28,"ny":28,"refTime":"2026-02-12T03:00:00:Z","depth":0,"parameterNumber":3,"parameterNumberName":"V-component_of_WINDS"},"data":[0,0,0,0,0,0,0,0,0,0,0,0,0,0,0,0,0,0,0,0,0,0,0,0,0,0,0,0,0,0,0,0,0,0,0,0,0,0,0,0,0,0,0,0,0,0,0,0,0,0,0,0,0,0,0,0,0,0,0.0451,0.0451,0,0.0441,0.0441,0.044,0.0395,0.0394,0.0393,0.0392,0.0382,0.0383,0.0384,0,0,0,0,0,0,0,0,0,0,0,0,0,0.0431,0.0431,0.0451,0.0451,0.0451,0.0441,0.0441,0.044,0.0395,0.0394,0.0393,0.0391,0.0382,0.0383,0.0384,0,0,0,0,0,0,0,0,0,0,0,0,0,0.0432,0.0432,0.0451,0.0427,0.0425,0.0441,0.0441,0.044,0.0396,0.0394,0.0392,0.0391,0.0382,0.0383,0.0384,0.0422,0,0,0.0387,0.0388,0,0,0,0,0,0,0,0,0.0432,0.0433,0.043,0.0428,0.0426,0.0417,0.043,0.0434,0.0396,0.0407,0.0392,0.039,0.0395,0.0395,0.0397,0.0422,0.0422,0.0387,0.0388,0.0388,0.0389,0,0,0,0,0,0,0,0.0432,0.0433,0.0447,0.043,0.0428,0.0416,0.0415,0.043,0.041,0.0405,0.0402,0.0402,0.0394,0.0396,0.0396,0.0421,0.0387,0.0388,0.0389,0.0389,0.0477,0.0478,0,0,0,0,0,0,0.0435,0.0433,0.0447,0.0446,0.0425,0.0418,0.0416,0.0422,0.041,0.0406,0.0403,0.0399,0.0395,0.0395,0.0396,0.0439,0.0388,0.0389,0.039,0.0475,0.0477,0.0479,0,0,0,0,0,0,0.0435,0.0437,0.0447,0.0439,0.0439,0.042,0.0427,0.0422,0.0424,0.0408,0.0404,0.0409,0.0393,0.0394,0.0416,0.0438,0.039,0.0391,0.0473,0.0476,0.0478,0.0527,0,0,0,0,0,0,0.0435,0.0437,0.0452,0.044,0.044,0.0468,0.0428,0.0423,0.0426,0.0422,0.0412,0.0409,0.0392,0.0414,0.0417,0.0439,0.0392,0.0471,0.0474,0.0477,0.0523,0.0531,0.0537,0,0,0,0,0,0.0434,0.0466,0.0453,0.0455,0.0458,0.0469,0.047,0.0449,0.0428,0.0443,0.0432,0.0409,0.0435,0.0417,0.0419,0.0442,0.0469,0.0473,0.0477,0.052,0.0529,0.0537,0,0,0,0,0,0,0.0482,0.0464,0.0449,0.0478,0.0476,0.0462,0.0479,0.046,0.0463,0.0459,0.0434,0.0432,0.0457,0.0452,0.0432,0.0478,0.0449,0.0453,0.0481,0.0489,0.0496,0.0497,0.0393,0,0,0,0,0,0.0496,0.0507,0.0491,0.0518,0.0518,0.0499,0.0503,0.0488,0.0484,0.0483,0.0473,0.0471,0.0478,0.0483,0.0489,0.0522,0.0519,0.0539,0.0546,0.0552,0.0556,0.0572,0.058,0.0491,0.0491,0.0491,0,0,0.0525,0.0517,0.0525,0.0528,0.0524,0.0535,0.0498,0.0512,0.052,0.0485,0.0504,0.0498,0.0493,0.052,0.0531,0.0516,0.058,0.0557,0.0562,0.0562,0.0576,0.0585,0.0592,0.0494,0.0493,0.0493,0,0,0.0584,0.0579,0.06,0.0597,0.0591,0.0579,0.0584,0.0573,0.0566,0.0586,0.0559,0.0568,0.0582,0.0579,0.058,0.0636,0.0616,0.0639,0.0676,0.0691,0.0698,0.0704,0.0724,0.0731,0.0643,0.0643,0.0643,0,0.062,0.0636,0.0614,0.0629,0.0631,0.0599,0.062,0.0618,0.0615,0.0617,0.06,0.0615,0.061,0.0636,0.0649,0.0651,0.0656,0.064,0.0699,0.0705,0.071,0.0728,0.0736,0.0646,0.0646,0.0646,0.0645,0,0.0681,0.0693,0.0711,0.0708,0.0712,0.073,0.071,0.0717,0.0701,0.069,0.0709,0.0702,0.0705,0.071,0.0695,0.0734,0.0724,0.0704,0.0673,0.0722,0.0738,0.0745,0.065,0.0649,0.0648,0.0648,0,0,0.077,0.0754,0.0761,0.0758,0.0749,0.0758,0.0775,0.0777,0.0783,0.0782,0.0795,0.0807,0.0787,0.0788,0.0772,0.0786,0.083,0.0764,0.0763,0.0776,0.0871,0.0885,0.0894,0.0817,0.0818,0.0819,0.0871,0,0.0825,0.0852,0.0832,0.0863,0.0872,0.0842,0.0856,0.0852,0.0842,0.0849,0.0838,0.0847,0.0821,0.0821,0.0834,0.0822,0.0849,0.0818,0.0828,0.0829,0.0829,0.0903,0.0918,0.0968,0.0877,0.0878,0.0879,0,0.0892,0.0893,0.0925,0.0913,0.0916,0.093,0.093,0.0937,0.0932,0.0923,0.0924,0.0904,0.0919,0.089,0.091,0.089,0.0893,0.0888,0.0889,0.0889,0.0856,0.0903,0.0983,0.099,0.0889,0.0888,0.0888,0,0.0952,0.0962,0.0981,0.098,0.0967,0.0977,0.0972,0.0965,0.0968,0.0968,0.097,0.0972,0.0974,0.0976,0.0958,0.0938,0.098,0.0949,0.0973,0.0973,0.0982,0.0982,0.1063,0.0986,0.0986,0.0986,0.0986,0,0.1015,0.1035,0.1008,0.102,0.1041,0.1018,0.104,0.1032,0.1026,0.1036,0.101,0.102,0.0995,0.1002,0.0988,0.1006,0.1007,0.1001,0.0996,0.1002,0.1003,0.1003,0.0999,0.0988,0.0987,0.0987,0.0987,0,0.1085,0.1068,0.1087,0.1073,0.107,0.1086,0.1074,0.1084,0.1072,0.1085,0.1086,0.1068,0.1075,0.1057,0.1061,0.1051,0.1077,0.1068,0.1079,0.1076,0.11,0.1098,0.1183,0.1193,0.1111,0.1112,0.1112,0,0.1126,0.1141,0.1128,0.1132,0.1128,0.1136,0.1138,0.1116,0.1119,0.1114,0.1125,0.113,0.1132,0.1145,0.1131,0.1134,0.1124,0.1154,0.1125,0.113,0.1124,0.1123,0.1124,0.116,0.1161,0.1162,0.1163,0,0.12,0.119,0.1194,0.1195,0.1199,0.1199,0.1197,0.1202,0.1178,0.1183,0.119,0.1192,0.1196,0.12,0.12,0.1195,0.1175,0.1172,0.1177,0.1183,0.1188,0.1185,0.1095,0.117,0.1169,0.1169,0.1168,0.1168,0.1256,0.1267,0.1259,0.1264,0.126,0.1259,0.1268,0.1256,0.1261,0.1262,0.1249,0.1258,0.1252,0.125,0.1246,0.1253,0.1239,0.1248,0.1249,0.1252,0.1255,0.1188,0.1253,0.1253,0.1253,0.1253,0.1252,0,0.1327,0.132,0.1325,0.1323,0.1327,0.1308,0.1304,0.1309,0.1317,0.1313,0.1315,0.1322,0.1327,0.1314,0.1316,0.1324,0.1315,0.1325,0.1324,0.1323,0.1268,0.1262,0.1333,0.1333,0.1333,0.1333,0.1332,0.1332,0.1365,0.1382,0.1371,0.1386,0.1379,0.1388,0.1387,0.1386,0.1382,0.1391,0.1394,0.1385,0.1377,0.1379,0.1382,0.1378,0.138,0.1393,0.1386,0.1335,0.1327,0.1319,0.1314,0.1394,0.1394,0.144,0.1441,0.1441]}]]